Regional Weather Roundup
Issued by NWS

Home | Current Version | Previous Version | Text Only | Print | Product List | Glossary On
Versions: 1 2 3 4 5 6 7 8 9 10 11 12 13 14 15 16 17 18 19 20 21 22 23 24 25 26 27 28 29 30 31 32 33 34 35 36 37 38 39 40 41 42 43 44 45 46 47 48 49 50
000
ASUS43 KTOP 311008
RWRKS

WEATHER ROUNDUP FOR KANSAS
NATIONAL WEATHER SERVICE GOODLAND KS
500 AM CDT FRI JUL 31 2015

NOTE:  "FAIR" INDICATES FEW OR NO CLOUDS BELOW 12,000 FEET WITH NO
SIGNIFICANT WEATHER AND/OR OBSTRUCTIONS TO VISIBILITY.

KSZ001>006-013>018-027>032-041>047-311100-
NORTHWEST KANSAS

CITY           SKY/WX    TMP DP  RH WIND       PRES   REMARKS
GOODLAND       CLEAR     60  57  89 CALM      30.26S
HAYS           PTCLDY    66  61  82 CALM      30.19S
HILL CITY      CLEAR     69  67  93 CALM      30.20F
RUSSELL        PTCLDY    67  66  97 S6        30.17F
$$

KSZ061>065-074>080-084>089-311100-
SOUTHWEST KANSAS

CITY           SKY/WX    TMP DP  RH WIND       PRES   REMARKS
DODGE CITY     PTCLDY    67  65  93 S3        30.22R
ELKHART          N/A     70  66  87 S7          N/A
GARDEN CITY    FOG       67  66  97 S3        30.23R VSB 3/4
GREAT BEND     CLEAR     68  63  83 SE3       30.18F
LIBERAL        CLOUDY    72  66  83 CALM      30.23R
PRATT          PTCLDY    68  68 100 E3        30.20S FOG
$$

KSZ066>073-081>083-090>101-311100-
SOUTHEAST KANSAS

CITY           SKY/WX    TMP DP  RH WIND       PRES   REMARKS
CHANUTE        PTCLDY    69  67  93 NE3       30.16R
COFFEYVILLE    CLOUDY    74  70  87 NE3       30.14R
HUTCHINSON     FOG       67  65  93 CALM      30.18S VSB 1/4
MEDICINE LODGE   N/A     69  69 100 N3        30.17R
NEWTON         PTCLDY    70  63  78 NE5       30.20S
PARSONS        CLOUDY    72  68  87 CALM      30.16R
WICHITA INTL   MOCLDY    73  67  81 CALM      30.16S
WICHITA JABRA  PTCLDY    69  67  93 NE3       30.17R
WICHITA MCCONL PTCLDY    72  66  81 NE3       30.17R
WINFIELD       PTCLDY    72  68  87 NE3       30.16S
$$

KSZ007>012-019>026-033>040-048>060-102>105-311100-
NORTHEAST KANSAS

CITY           SKY/WX    TMP DP  RH WIND       PRES   REMARKS
CONCORDIA      CLEAR     69  65  86 W5        30.17S
EMPORIA        CLEAR     64  63  96 CALM      30.17S
LAWRENCE       PTCLDY    60  58  92 CALM      30.16S
MANHATTAN      CLEAR     64  63  96 CALM      30.16S
MARYSVILLE     CLEAR     64  63  94 CALM      30.16S
OLATHE IND     CLEAR     64  60  87 S3        30.17F
OLATHE EXE     CLEAR     63  62  97 CALM      30.16S
SALINA         CLEAR     68  65  90 S3        30.17S
TOPEKA BILLARD CLEAR     62  62 100 CALM      30.16S
TOPEKA FORBES  CLEAR     64  61  90 S3        30.16F
$$



USA.gov is the U.S. government's official web portal to all federal, state and local government web resources and services.